Greenville Downtown, SC

5:02 PM EDT on August 22, 2017 (GMT -0400)
Greenville Downtown

Weather History for KGMU - March, 2012

Change the Weather History Date:

Wednesday, March 28, 2012

  Actual Average Record
Temperature  
Mean Temperature 66 °F -  
Max Temperature 81 °F 65 °F 84 °F (2007)
Min Temperature 51 °F 45 °F 32 °F (2013)
Growing Degree Days 16 (Base 50)    
Moisture  
Dew Point 50 °F    
Average Humidity 62    
Maximum Humidity 94    
Minimum Humidity 35    
Precipitation  
Precipitation 0.00 in - - ()
Sea Level Pressure  
Sea Level Pressure 30.12 in    
Wind  
Wind Speed 6 mph (SW)    
Max Wind Speed 16 mph    
Max Gust Speed 24 mph    
Visibility 9 miles    
Events      
Averages and records for this station are not official NWS values.
T = Trace of Precipitation, MM = Missing Value Source: NWS Daily Summary

Daily Weather History Graph

Daily Weather History Graph

Search for Another Location

Airport or City:

Trip Planner

Search our weather history database for the weather conditions in past years. The results will help you decide how hot, cold, wet, or windy it might be!

Date:

Astronomy

Mar. 28, 2012 Rise Set
Actual Time 7:21 AM EDT 7:47 PM EDT
Civil Twilight 6:55 AM EDT 8:13 PM EDT
Nautical Twilight 6:26 AM EDT 8:43 PM EDT
Astronomical Twilight 5:55 AM EDT 9:13 PM EDT
Moon 10:49 AM EDT (3/28) 12:37 AM EDT (3/28)
Length of Visible Light 13h 17m
Length of Day
12h 26m
Waxing Crescent, 30% of the Moon is Illuminated
Mar 28
Waxing Crescent
Mar 30
First Quarter
Apr 6
Full
Apr 13
Last Quarter
Apr 21
New

Hourly Weather History & Observations

Time (EDT) Temp. Heat Index Dew Point Humidity Pressure Visibility Wind Dir Wind Speed Gust Speed Precip Events Conditions
12:53 AM 57.9 °F - 37.0 °F 46% 30.23 in 10.0 mi Calm Calm - N/A   Clear
1:53 AM 55.9 °F - 37.0 °F 49% 30.23 in 10.0 mi SSW 3.5 mph - N/A   Clear
2:53 AM 55.0 °F - 39.0 °F 55% 30.21 in 10.0 mi Calm Calm - N/A   Clear
3:53 AM 54.0 °F - 39.9 °F 59% 30.20 in 10.0 mi Calm Calm - N/A   Clear
4:53 AM 51.1 °F - 39.9 °F 66% 30.19 in 10.0 mi South 3.5 mph - N/A   Scattered Clouds
5:04 AM 51.8 °F - 41.0 °F 67% 30.20 in 10.0 mi SSW 4.6 mph - N/A   Mostly Cloudy
5:53 AM 55.0 °F - 44.1 °F 67% 30.19 in 10.0 mi SW 5.8 mph - N/A   Mostly Cloudy
6:53 AM 55.0 °F - 46.9 °F 74% 30.19 in 10.0 mi SSW 6.9 mph - N/A   Scattered Clouds
7:53 AM 55.0 °F - 51.1 °F 86% 30.20 in 8.0 mi SSW 9.2 mph - N/A   Partly Cloudy
8:28 AM 55.4 °F - 53.6 °F 94% 30.21 in 6.0 mi SW 10.4 mph - N/A   Mostly Cloudy
8:53 AM 55.9 °F - 54.0 °F 93% 30.20 in 5.0 mi SW 13.8 mph - N/A   Overcast
9:45 AM 59.0 °F - 55.4 °F 88% 30.20 in 8.0 mi SW 6.9 mph - N/A   Overcast
9:53 AM 60.1 °F - 55.0 °F 83% 30.19 in 9.0 mi SSW 9.2 mph - N/A   Overcast
10:14 AM 60.8 °F - 55.4 °F 82% 30.20 in 8.0 mi SW 8.1 mph - N/A   Overcast
10:53 AM 62.1 °F - 55.0 °F 78% 30.18 in 8.0 mi WSW 10.4 mph - N/A   Overcast
11:36 AM 64.4 °F - 55.4 °F 73% 30.18 in 9.0 mi West 12.7 mph - N/A   Mostly Cloudy
11:46 AM 66.2 °F - 55.4 °F 68% 30.17 in 10.0 mi SW 8.1 mph - N/A   Partly Cloudy
11:53 AM 66.9 °F - 55.9 °F 68% 30.16 in 10.0 mi SW 9.2 mph - N/A   Partly Cloudy
12:53 PM 70.0 °F - 55.9 °F 61% 30.12 in 10.0 mi SSW 10.4 mph - N/A   Clear
1:53 PM 75.0 °F - 55.9 °F 51% 30.08 in 10.0 mi WSW 13.8 mph 21.9 mph N/A   Clear
2:53 PM 77.0 °F - 57.0 °F 50% 30.04 in 10.0 mi SW 15.0 mph 20.7 mph N/A   Clear
3:53 PM 78.1 °F - 55.9 °F 46% 30.00 in 10.0 mi SW 15.0 mph 21.9 mph N/A   Clear
4:53 PM 80.1 °F 80.1 °F 55.0 °F 42% 29.97 in 10.0 mi SW 10.4 mph 19.6 mph N/A   Clear
5:53 PM 80.1 °F - 51.1 °F 36% 29.95 in 10.0 mi West 16.1 mph 24.2 mph N/A   Clear
6:53 PM 79.0 °F - 48.9 °F 35% 29.95 in 10.0 mi WSW 16.1 mph 24.2 mph N/A   Clear
7:53 PM 75.9 °F - 48.0 °F 37% 29.96 in 10.0 mi WSW 9.2 mph 19.6 mph N/A   Clear
8:53 PM 73.0 °F - 51.1 °F 46% 29.97 in 10.0 mi SW 8.1 mph - N/A   Clear
9:53 PM 73.0 °F - 50.0 °F 44% 29.99 in 10.0 mi WSW 10.4 mph - N/A   Clear
10:53 PM 70.0 °F - 51.1 °F 51% 29.99 in 10.0 mi West 8.1 mph - N/A   Clear
11:53 PM 68.0 °F - 50.0 °F 52% 29.98 in 10.0 mi West 10.4 mph - N/A   Clear